Regional Weather Roundup
Issued by NWS

Home | Current Version | Previous Version | Text Only | Print | Product List | Glossary On
Versions: 1 2 3 4 5 6 7 8 9 10 11 12 13 14 15 16 17 18 19 20 21 22 23 24 25 26 27 28 29 30 31 32 33 34 35 36 37 38 39 40 41 42 43 44 45 46 47 48 49 50
000
ASUS43 KMKX 232200
RWRWI

WISCONSIN REGIONAL WEATHER ROUNDUP
NATIONAL WEATHER SERVICE MILWAUKEE/SULLIVAN WI
500 PM CDT WED AUG 23 2017

NOTE: "FAIR" INDICATES FEW OR NO CLOUDS BELOW 12,000 FEET WITH NO
SIGNIFICANT WEATHER AND/OR OBSTRUCTIONS TO VISIBILITY.

WIZ001-002-006>008-014>016-023>028-232300-
NORTHWEST WISCONSIN

CITY           SKY/WX    TMP DP  RH WIND       PRES   REMARKS
SUPERIOR ARPT    N/A     68  50  51 CALM      30.05S
ASHLAND        SUNNY     66  48  52 NE5       30.07F
HAYWARD        MOSUNNY   66  46  48 N7        30.06F
SIREN          SUNNY     69  46  43 N5        30.06F
CUMBERLAND     MOSUNNY   66  43  42 N6        30.07S
RICE LAKE      MOSUNNY   68  48  48 NW7       30.07F HAZE
CHETEK         MOSUNNY   66  49  54 N7        30.06F
LADYSMITH      MOSUNNY   69  46  44 NW7       30.07S
EAU CLAIRE     NOT AVBL
MENOMONIE      MOSUNNY   71  49  45 NW7       30.05F
NEW RICHMOND   MOSUNNY   71  49  45 N7        30.05F
OSCEOLA        PTSUNNY   72  50  45 NW6       30.08F
$$

WIZ003>005-009-010-017-018-232300-
NORTH CENTRAL WISCONSIN

CITY           SKY/WX    TMP DP  RH WIND       PRES   REMARKS
MANITOWISH WTR MOSUNNY   59  42  52 N9        30.07R
ARBOR VITAE    SUNNY     63  43  47 N14       30.06R
WOODRUFF       SUNNY     63  43  47 N14       30.06R
RHINELANDER    MOSUNNY   65  45  48 NW9       30.05S
EAGLE RIVER    SUNNY     63  40  42 NW8G17    30.05S
LAND O LAKES   SUNNY     63  42  46 NW8G17    30.07S
PHILLIPS       PTSUNNY   65  47  52 N6        30.05S
TOMAHAWK         N/A     65  44  46 NW7       30.05S
MEDFORD        MOSUNNY   65  48  54 N10       30.05S
MERRILL        NOT AVBL
$$

WIZ029-030-035-036-043>047-232300-
CENTRAL WISCONSIN

CITY           SKY/WX    TMP DP  RH WIND       PRES   REMARKS
WAUSAU         MOSUNNY   69  46  43 NW9       30.02S
MOSINEE        NOT AVBL
MARSHFIELD     SUNNY     67  48  50 NW10      30.04S
STEVENS POINT  PTSUNNY   67  46  46 NW6       30.03S
WAUPACA        SUNNY     72  46  39 NW8       30.01F
WAUTOMA        PTSUNNY   71  49  45 N10       30.02F
WISC RAPIDS    MOSUNNY   70  49  47 NW10      30.04S
CAMP DOUGLAS   NOT AVBL
$$

WIZ011>013-019>022-031-037>040-048>050-232300-
NORTHEAST WISCONSIN

CITY           SKY/WX    TMP DP  RH WIND       PRES   REMARKS
ANTIGO         PTSUNNY   66  48  51 N9        30.03F
SHAWANO        MOSUNNY   73  47  39 NW10      30.00S
OCONTO         MOSUNNY   69  52  56 SE3       29.99S
STURGEON BAY   SUNNY     67  51  56 N5        30.01S
GREEN BAY      MOSUNNY   72  53  51 CALM      29.99F
MANITOWOC      NOT AVBL
APPLETON       PTSUNNY   72  43  35 W13       29.99F
CLINTONVILLE   MOSUNNY   72  45  37 N8        30.00F
OSHKOSH        SUNNY     71  49  45 NW8       30.00F
$$

WIZ032>034-041-042-053>061-232300-
SOUTHWEST WISCONSIN

CITY           SKY/WX    TMP DP  RH WIND       PRES   REMARKS
LA CROSSE      MOSUNNY   77  52  41 NW12      30.03F
SPARTA         SUNNY     73  50  44 NW8       30.04F
VIROQUA        MOSUNNY   69  53  55 NW8       30.05F
BOSCOBEL       SUNNY     77  49  37 NW9       30.03F
PRAIRIE DU CHI MOSUNNY   76  45  32 NW9G17    30.03F
PLATTEVILLE    MOSUNNY   73  52  46 NW10      30.05F
$$

WIZ056-057-062-063-064-067-068-232300-
SOUTH CENTRAL WISCONSIN

CITY           SKY/WX    TMP DP  RH WIND       PRES   REMARKS
REEDSBURG      MOSUNNY   73  50  44 NW10      30.03F
BARABOO/DELLS  MOSUNNY   73  44  35 N9G16     30.03F
LONE ROCK      NOT AVBL
MINERAL POINT  SUNNY     73  52  46 NW10      30.05F
MADISON        PTSUNNY   72  51  47 NW8       30.02F
MIDDLETON      MOSUNNY   71  52  51 NW10G17   30.04S
WATERTOWN      MOSUNNY   72  51  48 W8G16     30.01F
MONROE         PTSUNNY   72  50  46 NW9       30.04S
JANESVILLE     PTSUNNY   73  50  43 NW9       30.01F
$$

WIZ051-052-058>065-066-070>072-232300-
SOUTHEAST WISCONSIN

CITY           SKY/WX    TMP DP  RH WIND       PRES   REMARKS
MILWAUKEE      PTSUNNY   70  56  61 SE7       30.01S
WAUKESHA       PTSUNNY   72  48  43 W12       30.03S
MILWAUKEE/TIMM MOSUNNY   73  43  33 NW13      30.01F
RACINE         MOSUNNY   69  55  60 E7        30.03F
KENOSHA        MOSUNNY   71  49  45 NW8       30.02S
FOND DU LAC    MOSUNNY   72  48  42 N8        30.01F
SHEBOYGAN      SUNNY     71  52  50 NW7       30.00F
WEST BEND      MOSUNNY   68  50  52 NW7       30.01F
JUNEAU         MOSUNNY   71  50  48 W5        30.03F
$$

LSZ147-162-232300-
LAKE SUPERIOR

STATION/POSITION TIME  TEMP    WIND        PRES    WAVE
                       AIR SEA DIR/SP/G            HT/PER
                 (UTC) (F)     (DEG/KT/KT) (MB)    (FT/S)
W MID LAKE BUOY  2050   60 60  250/  6/  6 1017.7F   1/ 4
DEVILS ISLAND    2100   62     130/  3/  5 1018.2F
PORT WING        2140   91      20/  3/  4 1017.9F
SAXON HARBOR     2130   64      50/  4/  7 1018.3S
$$

LMZ867-665-643>646-232300-
LAKE MICHIGAN

STATION/POSITION TIME  TEMP    WIND        PRES    WAVE
                       AIR SEA DIR/SP/G            HT/PER
                 (UTC) (F)     (DEG/KT/KT) (MB)    (FT/S)
S GREEN BAY BUOY 2130   68 72  190/  6/  6 1015.5F
N MID LAKE BUOY  2050   63 66   60/  6/  8 1016.4R   2/ 4
NORTHPORT PIER   2140   66     350/  7/  9 1015.6S
KEWAUNEE LAKESHO 2130   65     130/  5/  7 1015.3R
SHEBOYGAN LAKESH 2100   65     140/  8/  9 1015.9F
PORT WASHINGTON  2140   74     340/  7/ 11 1016.9S
ATWATER BUOY     2009   68 71   80/  6/  8 1016.6
MILWAUKEE LAKESH 2130   67     120/  8/  8   N/A
S MID LAKE BUOY  2050   66 71   20/  8/ 10 1016.6F   2/ 5
KENOSHA   LAKESH 2100   69      90/  7/ 10 1016.3
$$

TC  - TEMPERATURE IN CELSIUS
VSB - VISIBILITY IN STATUTE MILES
WCI - WIND CHILL INDEX
HX  - HEAT INDEX





USA.gov is the U.S. government's official web portal to all federal, state and local government web resources and services.